Regional Weather Roundup
Issued by NWS

Home | Current Version | Previous Version | Text Only | Print | Product List | Glossary Off
Versions: 1 2 3 4 5 6 7 8 9 10 11 12 13 14 15 16 17 18 19 20 21 22 23 24 25 26 27 28 29 30 31 32 33 34 35 36 37 38 39 40 41 42 43 44 45 46 47 48 49 50

000
ASUS44 KMEG 151600
RWRTN
TENNESSEE HOURLY STATE WEATHER ROUNDUP
NATIONAL WEATHER SERVICE MEMPHIS TN
1100 AM CDT TUE APR 15 2014

TNZ002-004-019-021-049-052-054-088>092-151700-
WEST TENNESSEE

CITY           SKY/WX    TMP DP  RH WIND       PRES   REMARKS
MEMPHIS INTL   SUNNY     45  19  35 N23G30    30.23R
NWS MEMPHIS      N/A     44 N/A N/A MISG        N/A
JACKSON        SUNNY     43  23  45 N23       30.21R
DYERSBURG      SUNNY     43  19  39 N17G25    30.24R
UNION CITY     MOSUNNY   39  25  56 N18       30.21R WCI  30
LEXINGTON      MOSUNNY   41  23  48 N15       30.15R
$$

TNZ008-025-027-028-033-062-065-066-151700-
NORTH MIDDLE TENNESSEE

CITY           SKY/WX    TMP DP  RH WIND       PRES   REMARKS
NASHVILLE      PTSUNNY   41  29  62 NW18G25   30.11R
CLARKSVILLE    PTSUNNY   42  26  53 N20       30.15R
CROSSVILLE     LGT SNOW  34  31  88 N9        29.99S FOG     WCI  27
$$

TNZ061-075-076-078-094-096-097-151700-
SOUTH MIDDLE TENNESSEE

CITY           SKY/WX    TMP DP  RH WIND       PRES   REMARKS
TULLAHOMA      CLOUDY    37  30  75 N15       30.05R WCI  28
WINCHESTER     CLOUDY    37  34  87 N13       30.05R WCI  29
MCMINNVILLE    PTSUNNY   37  37 100 N16       30.04R WCI  28
COLUMBIA       CLOUDY    41  32  70 NW12      30.09R
$$

TNZ017-018-042-046-047-151700-
NORTHEAST TENNESSEE

CITY           SKY/WX    TMP DP  RH WIND       PRES   REMARKS
TRI CITIES     LGT RAIN  42  37  82 N9        29.90R
ELIZABETHTON   LGT RAIN  39  37  93 CALM      29.88R FOG
$$

TNZ012-013-036-069-073-074-151700-
CENTRAL EAST TENNESSEE

CITY           SKY/WX    TMP DP  RH WIND       PRES   REMARKS
KNOXVILLE      FLURRIES  38  35  89 N9        30.00R WCI  31
OAK RIDGE      FLURRIES  38  34  85 VRB3      30.02R
$$

TNZ083-085-099-151700-
SOUTHEAST TENNESSEE

CITY           SKY/WX    TMP DP  RH WIND       PRES   REMARKS
CHATTANOOGA    CLOUDY    44  36  73 N15       30.00R
$$

SKY/WX REPORTED AS FAIR MEANS FEW OR NO CLOUDS BELOW
12 THOUSAND FEET.




USA.gov is the U.S. government's official web portal to all federal, state and local government web resources and services.